User: anonymous   Login
Location: Caltech
(34.1382°N, 118.1253°W)
Time: 21:00:15
(UTC-07:00)
Language:

SEDSat Delta rocket - Orbit

View from above orbital plane
View from above orbital plane
View from above satellite
View from above satellite

Ground track
Ground track

The orbit data is extracted from the following two-line orbital elements,

1 25510U 98061C   17262.57658084 +.00000304 +00000-0 +40685-4 0  9992
2 25510 031.4358 318.8913 0327944 198.1386 284.6877 14.37231967991405
Epoch (UTC): 19 September 2017 13:50:16
Eccentricity: 0.0327944
inclination: 31.4358°
perigee height: 533 km
apogee height: 1002 km
right ascension of ascending node: 318.8913°
argument of perigee: 198.1386°
revolutions per day: 14.37231967
mean anomaly at epoch: 284.6877°
orbit number at epoch: 99140

The dashed part of the orbit path shows where the satellite is in the earth's shadow,  

DLR